SBNTSBRF

Guest
Details From SBNT - Augusto Severo
To SBRF - Recife Intl
Flight Number -
Tags Generated
Created
Modified
Stats Distance 135 nm / 249 km
Max Altitude 0 ft / 0 m
Waypoints 2
Social Downloads 0
Likes 0
Share VATSIM

Download

Looking for another format? Having issues loading an existing format? Contact us
Advertisement - Login to hide

Notes

Generated

Route

SBNT SBRF

ID Type Via Altitude Latitude Longitude Leg Dist Tot Dist Heading (true) Name
O SBNT APT - 0 ft / 0 m -5.90756˚ -35.25631˚ - 0 nm - -
O SBRF APT - 0 ft / 0 m -8.12516˚ -34.92862˚ 134 nm 134 nm 172° / 172° -

Altitude Profile

Advertisement - Login to hide

SBNT

Details ICAO SBNT (NAT)
Name Augusto Severo
Region Brazil
Timezone America/Fortaleza (UTC-3.0)
Stats Elevation 169 ft / 52 m (AMSL)
Location -5.911747° -35.247709°
Runways 3
Magnetic Variation 21.374° W

METAR

SBNT 240600Z 15005KT 110V210 9999 SCT027 SCT080 24/22 Q1014

Decode

TAF

TAF SBNT 240200Z 2406/2506 11006KT 8000 SCT020 TN24/2408Z TX31/2415Z TEMPO 2406/2409 5000 SHRA BKN015 BECMG 2411/2412 12016KT TEMPO 2420/2422 4000 SHRA BKN015 BECMG 2422/2423 17007KT RMK PEA

Decode

Departure Runways

ID Width Length Bearing (true) Bearing (mag) Surface Threshold Offset Overrun Length
12 148 ft / 45 m 5,972 ft / 1,820 m 98.98° 120.35° Asphalt 0 ft / 0 m 0 ft / 0 m
16L 148 ft / 45 m 8,561 ft / 2,609 m 141.08° 162.45° Asphalt 0 ft / 0 m 279 ft / 85 m
16R 148 ft / 45 m 5,912 ft / 1,802 m 141.12° 162.49° Asphalt 0 ft / 0 m 1,350 ft / 411 m
30 148 ft / 45 m 5,972 ft / 1,820 m 278.98° 300.35° Asphalt 0 ft / 0 m 0 ft / 0 m
34L 148 ft / 45 m 5,912 ft / 1,802 m 321.12° 342.49° Asphalt 0 ft / 0 m 0 ft / 0 m
34R 148 ft / 45 m 8,561 ft / 2,609 m 321.08° 342.45° Asphalt 0 ft / 0 m 0 ft / 0 m

SBRF

Details ICAO SBRF (REC)
Name Recife Intl
Region Brazil
Timezone America/Recife (UTC-3.0)
Stats Elevation 33 ft / 10 m (AMSL)
Location -8.127896° -34.922981°
Runways 2
Magnetic Variation 22.074° W

METAR

SBRF 240600Z 19003KT 9999 SCT023 SCT050 24/21 Q1015

Decode

TAF

TAF SBRF 240200Z 2406/2506 12010KT 9999 SCT022 TN26/2406Z TX29/2415Z RMK PEA

Decode

Destination Runways

ID Width Length Bearing (true) Bearing (mag) Surface Threshold Offset Overrun Length
01 98 ft / 30 m 4,979 ft / 1,518 m 304.20° 326.27° Asphalt 300 ft / 91 m 0 ft / 0 m
18 148 ft / 45 m 9,915 ft / 3,022 m 161.91° 183.98° Asphalt 1,225 ft / 373 m 0 ft / 0 m
19 98 ft / 30 m 4,979 ft / 1,518 m 124.20° 146.27° Asphalt 300 ft / 91 m 0 ft / 0 m
36 148 ft / 45 m 9,915 ft / 3,022 m 341.91° 3.98° Asphalt 0 ft / 0 m 350 ft / 107 m

Approach Navaids

Runway Type Ident Frequency Range Bearing (true) Bearing (mag) Slope Elevation
18 Localiser IRF 110.30 MHz 18 nm / 33 km 161.91° 183.98° - 33 ft / 10 m (AMSL)
18 Glidescope IRF 110.30 MHz 10 nm / 19 km 161.91° 183.98° 3.00° 33 ft / 10 m (AMSL)

Popular Alternatives